Location: Clarion
(42.7316°N, 93.7330°W)
Time: 22:02:39
(UTC+00:00)

Cosmos 2333 Rocket - Pass Details

Date: 22 April 2026
Orbit: 842 x 860 km, 70.8° (Epoch: 12 May)

Event Time Altitude Azimuth Distance (km) Brightness Sun altitude
Rises 07:34:55 0° 340° (NNW) 3,410 6.0 -31.9°
Reaches altitude 10° 07:37:32 10° 348° (NNW) 2,474 5.2 -31.8°
Maximum altitude 07:42:52 40° 58° (ENE) 1,229 3.3 -31.3°
Enters shadow 07:44:45 31° 99° (E) 1,447 3.5 -31.2°
